Saint Bonnet de Bellac- Haute Vienne - France
Donnes mto: jeudi, 05/04/2012
Date Horaire Temp. E. Hum. E. P.atmo. Pluie Vent Direction Direction Ensoleilleme Solaire P. de rose Temp au vent Rafales
05/04/2012 00:00 7,8 C 78 % 1009,3 hPa 0,0 mm 0,0 km/h (0 Bft) NE 45 0 min 0 W/m 4,2 C 7,8 C 0,0 km/h (0 Bft)
05/04/2012 00:10 7,8 C 78 % 1009,3 hPa 0,0 mm 0,0 km/h (0 Bft) NE 45 0 min 0 W/m 4,2 C 7,8 C 0,0 km/h (0 Bft)
05/04/2012 00:20 7,6 C 79 % 1009,3 hPa 0,0 mm 0,0 km/h (0 Bft) NE 45 0 min 0 W/m 4,2 C 7,6 C 0,0 km/h (0 Bft)
05/04/2012 00:30 7,5 C 79 % 1009,3 hPa 0,0 mm 0,0 km/h (0 Bft) NE 45 0 min 0 W/m 4,1 C 7,5 C 0,0 km/h (0 Bft)
05/04/2012 00:40 7,5 C 79 % 1009,4 hPa 0,0 mm 0,0 km/h (0 Bft) NE 45 0 min 0 W/m 4,1 C 7,5 C 0,0 km/h (0 Bft)
05/04/2012 00:50 7,4 C 80 % 1009,3 hPa 0,0 mm 0,0 km/h (0 Bft) NE 45 0 min 0 W/m 4,2 C 7,4 C 0,0 km/h (0 Bft)
05/04/2012 01:00 7,4 C 80 % 1009,2 hPa 0,0 mm 0,0 km/h (0 Bft) NE 45 0 min 0 W/m 4,2 C 7,4 C 0,0 km/h (0 Bft)
05/04/2012 01:10 7,3 C 80 % 1009,3 hPa 0,0 mm 0,0 km/h (0 Bft) NE 45 0 min 0 W/m 4,1 C 7,3 C 0,0 km/h (0 Bft)
05/04/2012 01:20 7,2 C 80 % 1009,3 hPa 0,0 mm 0,0 km/h (0 Bft) NE 45 0 min 0 W/m 4,0 C 7,2 C 0,0 km/h (0 Bft)
05/04/2012 01:30 6,9 C 80 % 1009,3 hPa 0,0 mm 0,0 km/h (0 Bft) NE 45 0 min 0 W/m 3,7 C 6,9 C 0,0 km/h (0 Bft)
05/04/2012 01:40 6,7 C 80 % 1009,4 hPa 0,0 mm 0,0 km/h (0 Bft) NE 45 0 min 0 W/m 3,5 C 6,7 C 0,0 km/h (0 Bft)
05/04/2012 01:50 6,4 C 81 % 1009,4 hPa 0,0 mm 0,0 km/h (0 Bft) NE 45 0 min 0 W/m 3,4 C 6,4 C 0,0 km/h (0 Bft)
05/04/2012 02:00 6,2 C 81 % 1009,4 hPa 0,0 mm 0,0 km/h (0 Bft) NE 45 0 min 0 W/m 3,2 C 6,2 C 0,0 km/h (0 Bft)
05/04/2012 02:10 6,0 C 82 % 1009,2 hPa 0,0 mm 1,1 km/h (1 Bft) E-NE 67 0 min 0 W/m 3,2 C 6,0 C 3,6 km/h (1 Bft)
05/04/2012 02:20 6,1 C 83 % 1009,2 hPa 0,0 mm 0,0 km/h (0 Bft) NE 45 0 min 0 W/m 3,4 C 6,1 C 0,0 km/h (0 Bft)
05/04/2012 02:30 5,9 C 83 % 1009,2 hPa 0,0 mm 0,0 km/h (0 Bft) NE 45 0 min 0 W/m 3,2 C 5,9 C 0,0 km/h (0 Bft)
05/04/2012 02:40 5,8 C 83 % 1009,2 hPa 0,0 mm 0,0 km/h (0 Bft) NE 45 0 min 0 W/m 3,1 C 5,8 C 0,0 km/h (0 Bft)
05/04/2012 02:50 5,6 C 83 % 1009,1 hPa 0,0 mm 0,0 km/h (0 Bft) NE 45 0 min 0 W/m 2,9 C 5,6 C 0,0 km/h (0 Bft)
05/04/2012 03:02 5,6 C 84 % 1009,0 hPa 0,0 mm 0,0 km/h (0 Bft) E-NE 67 0 min 0 W/m 3,1 C 5,6 C 0,0 km/h (0 Bft)
05/04/2012 03:10 5,6 C 84 % 1009,0 hPa 0,0 mm 0,0 km/h (0 Bft) E-NE 67 0 min 0 W/m 3,1 C 5,6 C 0,0 km/h (0 Bft)
05/04/2012 03:20 5,6 C 84 % 1009,0 hPa 0,0 mm 0,0 km/h (0 Bft) E-NE 67 0 min 0 W/m 3,1 C 5,6 C 0,0 km/h (0 Bft)
05/04/2012 03:30 5,5 C 84 % 1008,9 hPa 0,0 mm 0,0 km/h (0 Bft) E-NE 67 0 min 0 W/m 3,0 C 5,5 C 0,0 km/h (0 Bft)
05/04/2012 03:40 5,5 C 84 % 1009,0 hPa 0,0 mm 0,0 km/h (0 Bft) E-NE 67 0 min 0 W/m 3,0 C 5,5 C 0,0 km/h (0 Bft)
05/04/2012 03:50 5,4 C 84 % 1008,9 hPa 0,0 mm 0,0 km/h (0 Bft) E-NE 67 0 min 0 W/m 2,9 C 5,4 C 0,0 km/h (0 Bft)
05/04/2012 04:00 5,4 C 84 % 1008,9 hPa 0,0 mm 0,0 km/h (0 Bft) E-NE 67 0 min 0 W/m 2,9 C 5,4 C 0,0 km/h (0 Bft)
05/04/2012 04:10 5,4 C 84 % 1008,9 hPa 0,0 mm 0,0 km/h (0 Bft) E-NE 67 0 min 0 W/m 2,9 C 5,4 C 0,0 km/h (0 Bft)
05/04/2012 04:20 5,3 C 84 % 1008,9 hPa 0,0 mm 0,0 km/h (0 Bft) E-NE 67 0 min 0 W/m 2,8 C 5,3 C 0,0 km/h (0 Bft)
05/04/2012 04:30 5,2 C 84 % 1008,9 hPa 0,0 mm 0,0 km/h (0 Bft) E-NE 67 0 min 0 W/m 2,7 C 5,2 C 0,0 km/h (0 Bft)
05/04/2012 04:40 5,1 C 85 % 1008,9 hPa 0,0 mm 0,7 km/h (0 Bft) N-NE 22 0 min 0 W/m 2,8 C 5,1 C 3,6 km/h (1 Bft)
05/04/2012 04:50 4,8 C 85 % 1008,9 hPa 0,0 mm 0,0 km/h (0 Bft) N-NE 22 0 min 0 W/m 2,5 C 4,8 C 0,0 km/h (0 Bft)
05/04/2012 05:00 4,6 C 85 % 1009,0 hPa 0,0 mm 0,0 km/h (0 Bft) N-NE 22 0 min 0 W/m 2,3 C 4,6 C 0,0 km/h (0 Bft)
05/04/2012 05:10 4,3 C 85 % 1008,9 hPa 0,0 mm 0,0 km/h (0 Bft) NE 45 0 min 0 W/m 2,0 C 4,3 C 0,0 km/h (0 Bft)
05/04/2012 05:20 4,1 C 85 % 1008,8 hPa 0,0 mm 0,0 km/h (0 Bft) NE 45 0 min 0 W/m 1,8 C 4,1 C 0,0 km/h (0 Bft)
05/04/2012 05:30 4,0 C 85 % 1008,8 hPa 0,0 mm 1,8 km/h (1 Bft) E 90 0 min 0 W/m 1,7 C 4,0 C 3,6 km/h (1 Bft)
05/04/2012 05:40 4,1 C 86 % 1008,9 hPa 0,0 mm 0,0 km/h (0 Bft) E 90 0 min 0 W/m 2,0 C 4,1 C 0,0 km/h (0 Bft)
05/04/2012 05:50 3,9 C 86 % 1008,8 hPa 0,0 mm 0,0 km/h (0 Bft) E-NE 67 0 min 0 W/m 1,8 C 3,9 C 0,0 km/h (0 Bft)
05/04/2012 06:00 3,8 C 86 % 1008,9 hPa 0,0 mm 0,0 km/h (0 Bft) E-NE 67 0 min 0 W/m 1,7 C 3,8 C 0,0 km/h (0 Bft)
05/04/2012 06:10 3,7 C 86 % 1008,9 hPa 0,0 mm 0,4 km/h (0 Bft) E-SE 112 0 min 0 W/m 1,6 C 3,7 C 3,2 km/h (1 Bft)
05/04/2012 06:20 3,5 C 87 % 1009,0 hPa 0,0 mm 1,1 km/h (1 Bft) E-NE 67 0 min 0 W/m 1,5 C 3,5 C 4,0 km/h (1 Bft)
05/04/2012 06:30 3,4 C 87 % 1009,0 hPa 0,0 mm 0,0 km/h (0 Bft) E-NE 67 0 min 0 W/m 1,4 C 3,4 C 0,0 km/h (0 Bft)
05/04/2012 06:40 3,1 C 87 % 1009,1 hPa 0,0 mm 0,0 km/h (0 Bft) N 360 0 min 0 W/m 1,2 C 3,1 C 0,0 km/h (0 Bft)
05/04/2012 06:50 2,9 C 87 % 1009,0 hPa 0,0 mm 0,0 km/h (0 Bft) E 90 0 min 0 W/m 1,0 C 2,9 C 0,0 km/h (0 Bft)
05/04/2012 07:00 2,9 C 87 % 1009,0 hPa 0,0 mm 0,0 km/h (0 Bft) E-NE 67 0 min 0 W/m 1,0 C 2,9 C 0,0 km/h (0 Bft)
05/04/2012 07:10 2,8 C 87 % 1009,0 hPa 0,0 mm 0,0 km/h (0 Bft) E 90 0 min 0 W/m 0,9 C 2,8 C 0,0 km/h (0 Bft)
05/04/2012 07:20 2,8 C 87 % 1009,0 hPa 0,0 mm 0,7 km/h (0 Bft) E 90 0 min 0 W/m 0,9 C 2,8 C 3,6 km/h (1 Bft)
05/04/2012 07:30 2,6 C 87 % 1009,1 hPa 0,0 mm 0,4 km/h (0 Bft) E 90 0 min 0 W/m 0,7 C 2,6 C 3,2 km/h (1 Bft)
05/04/2012 07:40 2,6 C 88 % 1009,1 hPa 0,0 mm 0,0 km/h (0 Bft) E 90 2 min 0 W/m 0,8 C 2,6 C 0,0 km/h (0 Bft)
05/04/2012 07:50 2,5 C 88 % 1009,2 hPa 0,0 mm 0,7 km/h (0 Bft) E 90 2 min 0 W/m 0,7 C 2,5 C 0,7 km/h (0 Bft)
05/04/2012 08:00 2,4 C 88 % 1009,2 hPa 0,0 mm 0,0 km/h (0 Bft) E-SE 112 2 min 0 W/m 0,6 C 2,4 C 0,0 km/h (0 Bft)
05/04/2012 08:10 2,4 C 88 % 1009,3 hPa 0,0 mm 0,0 km/h (0 Bft) E-SE 112 2 min 0 W/m 0,6 C 2,4 C 0,0 km/h (0 Bft)
05/04/2012 08:20 2,5 C 88 % 1009,5 hPa 0,0 mm 1,4 km/h (1 Bft) E 90 2 min 0 W/m 0,7 C 2,5 C 3,2 km/h (1 Bft)
05/04/2012 08:30 2,6 C 88 % 1009,6 hPa 0,0 mm 0,4 km/h (0 Bft) E-SE 112 2 min 0 W/m 0,8 C 2,6 C 4,0 km/h (1 Bft)
05/04/2012 08:40 2,9 C 88 % 1009,7 hPa 0,0 mm 0,0 km/h (0 Bft) E-SE 112 2 min 0 W/m 1,1 C 2,9 C 3,2 km/h (1 Bft)
05/04/2012 08:50 3,4 C 88 % 1009,7 hPa 0,0 mm 0,0 km/h (0 Bft) E-NE 67 2 min 0 W/m 1,6 C 3,4 C 1,4 km/h (1 Bft)
05/04/2012 09:00 3,9 C 88 % 1009,8 hPa 0,0 mm 0,0 km/h (0 Bft) E-NE 67 2 min 0 W/m 2,1 C 3,9 C 0,0 km/h (0 Bft)
05/04/2012 09:10 4,6 C 88 % 1009,8 hPa 0,0 mm 0,0 km/h (0 Bft) E 90 2 min 0 W/m 2,8 C 4,6 C 3,2 km/h (1 Bft)
05/04/2012 09:20 5,2 C 87 % 1009,8 hPa 0,0 mm 0,4 km/h (0 Bft) E 90 2 min 0 W/m 3,2 C 5,2 C 0,4 km/h (0 Bft)
05/04/2012 09:30 5,8 C 86 % 1009,8 hPa 0,0 mm 0,4 km/h (0 Bft) E 90 2 min 0 W/m 3,6 C 5,8 C 3,6 km/h (1 Bft)
05/04/2012 09:40 6,6 C 85 % 1009,7 hPa 0,0 mm 0,0 km/h (0 Bft) E 90 2 min 0 W/m 4,3 C 6,6 C 0,0 km/h (0 Bft)
05/04/2012 09:50 7,4 C 83 % 1009,8 hPa 0,0 mm 0,0 km/h (0 Bft) E 90 2 min 0 W/m 4,7 C 7,4 C 0,0 km/h (0 Bft)
05/04/2012 10:00 8,3 C 81 % 1010,0 hPa 0,0 mm 0,0 km/h (0 Bft) E 90 2 min 0 W/m 5,2 C 8,3 C 3,6 km/h (1 Bft)
05/04/2012 10:10 8,8 C 79 % 1010,1 hPa 0,0 mm 0,7 km/h (0 Bft) E-NE 67 2 min 0 W/m 5,4 C 8,8 C 3,6 km/h (1 Bft)
05/04/2012 10:20 9,1 C 78 % 1010,2 hPa 0,0 mm 1,4 km/h (1 Bft) E-NE 67 2 min 0 W/m 5,5 C 9,1 C 4,3 km/h (1 Bft)
05/04/2012 10:30 9,6 C 77 % 1010,4 hPa 0,0 mm 2,9 km/h (1 Bft) E-NE 67 2 min 0 W/m 5,8 C 9,6 C 3,2 km/h (1 Bft)
05/04/2012 10:40 9,9 C 75 % 1010,2 hPa 0,0 mm 0,0 km/h (0 Bft) E-NE 67 2 min 0 W/m 5,7 C 9,9 C 0,0 km/h (0 Bft)
05/04/2012 10:50 10,3 C 75 % 1010,2 hPa 0,0 mm 0,0 km/h (0 Bft) E-NE 67 2 min 0 W/m 6,1 C 10,3 C 0,0 km/h (0 Bft)
05/04/2012 11:00 10,6 C 75 % 1010,3 hPa 0,0 mm 0,0 km/h (0 Bft) E-NE 67 2 min 0 W/m 6,4 C 10,6 C 0,0 km/h (0 Bft)
05/04/2012 11:10 11,4 C 74 % 1010,3 hPa 0,0 mm 0,0 km/h (0 Bft) E-NE 67 2 min 0 W/m 6,9 C 11,4 C 0,0 km/h (0 Bft)
05/04/2012 11:20 12,2 C 73 % 1010,3 hPa 0,0 mm 2,5 km/h (1 Bft) E-NE 67 2 min 0 W/m 7,5 C 12,2 C 4,0 km/h (1 Bft)
05/04/2012 11:30 13,1 C 69 % 1010,5 hPa 0,0 mm 2,2 km/h (1 Bft) E-NE 67 2 min 0 W/m 7,5 C 13,1 C 6,1 km/h (2 Bft)
05/04/2012 11:40 14,1 C 67 % 1010,4 hPa 0,0 mm 2,2 km/h (1 Bft) E 90 2 min 0 W/m 8,1 C 14,1 C 4,3 km/h (1 Bft)
05/04/2012 11:50 14,7 C 62 % 1010,3 hPa 0,0 mm 8,3 km/h (2 Bft) NE 45 2 min 0 W/m 7,5 C 14,7 C 13,0 km/h (3 Bft)
05/04/2012 12:00 14,7 C 60 % 1010,4 hPa 0,0 mm 3,2 km/h (1 Bft) NE 45 2 min 0 W/m 7,0 C 14,7 C 4,7 km/h (1 Bft)
05/04/2012 12:10 14,8 C 59 % 1010,4 hPa 0,0 mm 6,5 km/h (2 Bft) E-NE 67 2 min 0 W/m 6,9 C 14,8 C 9,0 km/h (2 Bft)
05/04/2012 12:20 14,7 C 59 % 1010,3 hPa 0,0 mm 5,0 km/h (1 Bft) N 360 2 min 0 W/m 6,8 C 14,7 C 7,2 km/h (2 Bft)
05/04/2012 12:30 14,8 C 58 % 1010,1 hPa 0,0 mm 9,0 km/h (2 Bft) N 360 2 min 0 W/m 6,6 C 14,8 C 14,0 km/h (3 Bft)
05/04/2012 12:40 14,8 C 56 % 1010,1 hPa 0,0 mm 8,3 km/h (2 Bft) E-NE 67 2 min 0 W/m 6,1 C 14,8 C 8,3 km/h (2 Bft)
05/04/2012 12:50 15,4 C 54 % 1010,1 hPa 0,0 mm 7,6 km/h (2 Bft) NE 45 2 min 0 W/m 6,1 C 15,4 C 14,4 km/h (3 Bft)
05/04/2012 13:00 15,4 C 51 % 1010,2 hPa 0,0 mm 9,0 km/h (2 Bft) NE 45 2 min 0 W/m 5,3 C 15,4 C 15,1 km/h (3 Bft)
05/04/2012 13:10 15,5 C 51 % 1009,9 hPa 0,0 mm 6,8 km/h (2 Bft) N-NE 22 2 min 0 W/m 5,4 C 15,5 C 8,3 km/h (2 Bft)
05/04/2012 13:20 16,3 C 51 % 1009,8 hPa 0,0 mm 6,5 km/h (2 Bft) E-NE 67 2 min 0 W/m 6,1 C 16,3 C 11,2 km/h (2 Bft)
05/04/2012 13:30 16,6 C 49 % 1009,7 hPa 0,0 mm 7,2 km/h (2 Bft) N 360 2 min 0 W/m 5,8 C 16,6 C 12,2 km/h (2 Bft)
05/04/2012 13:40 16,4 C 48 % 1009,7 hPa 0,0 mm 4,7 km/h (1 Bft) N-NE 22 2 min 0 W/m 5,4 C 16,4 C 8,3 km/h (2 Bft)
05/04/2012 13:50 16,4 C 49 % 1009,7 hPa 0,0 mm 8,3 km/h (2 Bft) NE 45 2 min 0 W/m 5,7 C 16,4 C 11,9 km/h (2 Bft)
05/04/2012 14:00 16,3 C 48 % 1009,6 hPa 0,0 mm 6,1 km/h (2 Bft) NE 45 2 min 0 W/m 5,3 C 16,3 C 9,4 km/h (2 Bft)
05/04/2012 14:10 16,4 C 49 % 1009,5 hPa 0,0 mm 7,9 km/h (2 Bft) N-NE 22 2 min 0 W/m 5,7 C 16,4 C 12,2 km/h (2 Bft)
05/04/2012 14:20 16,9 C 47 % 1009,5 hPa 0,0 mm 14,0 km/h (3 Bft) N 360 2 min 0 W/m 5,5 C 16,9 C 16,9 km/h (3 Bft)
05/04/2012 14:30 17,1 C 48 % 1009,5 hPa 0,0 mm 2,5 km/h (1 Bft) NE 45 2 min 0 W/m 6,0 C 17,1 C 4,3 km/h (1 Bft)
05/04/2012 14:40 17,4 C 48 % 1009,5 hPa 0,0 mm 4,0 km/h (1 Bft) N-NE 22 2 min 0 W/m 6,3 C 17,4 C 6,1 km/h (2 Bft)
05/04/2012 14:50 17,4 C 47 % 1009,4 hPa 0,0 mm 7,6 km/h (2 Bft) NE 45 2 min 0 W/m 6,0 C 17,4 C 9,0 km/h (2 Bft)
05/04/2012 15:00 17,6 C 46 % 1009,3 hPa 0,0 mm 9,0 km/h (2 Bft) E-NE 67 2 min 0 W/m 5,8 C 17,6 C 12,2 km/h (2 Bft)
05/04/2012 15:10 17,3 C 47 % 1009,3 hPa 0,0 mm 6,5 km/h (2 Bft) E-NE 67 2 min 0 W/m 5,9 C 17,3 C 11,2 km/h (2 Bft)
05/04/2012 15:20 17,1 C 48 % 1009,2 hPa 0,0 mm 9,4 km/h (2 Bft) NE 45 2 min 0 W/m 6,0 C 17,1 C 14,8 km/h (3 Bft)
05/04/2012 15:30 17,1 C 48 % 1009,1 hPa 0,0 mm 11,2 km/h (2 Bft) N-NE 22 2 min 0 W/m 6,0 C 17,1 C 18,4 km/h (3 Bft)
05/04/2012 15:40 16,8 C 46 % 1008,9 hPa 0,0 mm 13,0 km/h (3 Bft) N 360 2 min 0 W/m 5,1 C 16,8 C 21,2 km/h (4 Bft)
05/04/2012 15:50 16,8 C 47 % 1008,8 hPa 0,0 mm 8,6 km/h (2 Bft) NE 45 2 min 0 W/m 5,4 C 16,8 C 14,4 km/h (3 Bft)
05/04/2012 16:00 17,1 C 48 % 1008,8 hPa 0,0 mm 11,5 km/h (2 Bft) NE 45 2 min 0 W/m 6,0 C 17,1 C 13,3 km/h (3 Bft)
05/04/2012 16:10 17,4 C 48 % 1008,8 hPa 0,0 mm 11,2 km/h (2 Bft) N 360 2 min 0 W/m 6,3 C 17,4 C 15,5 km/h (3 Bft)
05/04/2012 16:20 17,5 C 47 % 1008,7 hPa 0,0 mm 7,2 km/h (2 Bft) NE 45 2 min 0 W/m 6,1 C 17,5 C 12,6 km/h (3 Bft)
05/04/2012 16:30 17,6 C 47 % 1008,5 hPa 0,0 mm 6,1 km/h (2 Bft) NE 45 2 min 0 W/m 6,2 C 17,6 C 6,1 km/h (2 Bft)
05/04/2012 16:40 17,4 C 47 % 1008,6 hPa 0,0 mm 6,5 km/h (2 Bft) N-NE 22 2 min 0 W/m 6,0 C 17,4 C 11,2 km/h (2 Bft)
05/04/2012 16:50 17,2 C 48 % 1008,5 hPa 0,0 mm 2,9 km/h (1 Bft) NE 45 2 min 0 W/m 6,1 C 17,2 C 9,7 km/h (2 Bft)
05/04/2012 17:00 17,1 C 48 % 1008,4 hPa 0,0 mm 13,7 km/h (3 Bft) N 360 2 min 0 W/m 6,0 C 17,1 C 19,1 km/h (3 Bft)
05/04/2012 17:10 16,8 C 49 % 1008,4 hPa 0,0 mm 9,4 km/h (2 Bft) E-NE 67 2 min 0 W/m 6,0 C 16,8 C 9,7 km/h (2 Bft)
05/04/2012 17:20 16,4 C 50 % 1008,4 hPa 0,0 mm 4,3 km/h (1 Bft) N-NE 22 2 min 0 W/m 6,0 C 16,4 C 9,7 km/h (2 Bft)
05/04/2012 17:30 16,4 C 50 % 1008,3 hPa 0,0 mm 6,8 km/h (2 Bft) N-NE 22 2 min 0 W/m 6,0 C 16,4 C 7,9 km/h (2 Bft)
05/04/2012 17:40 16,1 C 50 % 1008,3 hPa 0,0 mm 6,1 km/h (2 Bft) N-NE 22 2 min 0 W/m 5,7 C 16,1 C 7,6 km/h (2 Bft)
05/04/2012 17:50 15,8 C 50 % 1008,2 hPa 0,0 mm 6,5 km/h (2 Bft) NE 45 2 min 0 W/m 5,4 C 15,8 C 8,3 km/h (2 Bft)
05/04/2012 18:00 15,8 C 51 % 1008,1 hPa 0,0 mm 7,2 km/h (2 Bft) N-NE 22 2 min 0 W/m 5,7 C 15,8 C 9,4 km/h (2 Bft)
05/04/2012 18:10 15,6 C 51 % 1008,1 hPa 0,0 mm 10,1 km/h (2 Bft) NE 45 2 min 0 W/m 5,5 C 15,6 C 10,1 km/h (2 Bft)
05/04/2012 18:20 15,6 C 52 % 1008,0 hPa 0,0 mm 4,3 km/h (1 Bft) NE 45 2 min 0 W/m 5,8 C 15,6 C 4,3 km/h (1 Bft)
05/04/2012 18:30 15,5 C 52 % 1008,0 hPa 0,0 mm 5,4 km/h (2 Bft) NE 45 2 min 0 W/m 5,7 C 15,5 C 9,0 km/h (2 Bft)
05/04/2012 18:40 15,6 C 51 % 1008,0 hPa 0,0 mm 6,5 km/h (2 Bft) N-NE 22 2 min 0 W/m 5,5 C 15,6 C 10,1 km/h (2 Bft)
05/04/2012 18:50 15,7 C 51 % 1007,9 hPa 0,0 mm 8,6 km/h (2 Bft) N-NE 22 2 min 0 W/m 5,6 C 15,7 C 10,1 km/h (2 Bft)
05/04/2012 19:00 15,5 C 51 % 1008,0 hPa 0,0 mm 11,2 km/h (2 Bft) E 90 2 min 0 W/m 5,4 C 15,5 C 20,9 km/h (4 Bft)
05/04/2012 19:10 15,2 C 52 % 1008,1 hPa 0,0 mm 6,5 km/h (2 Bft) E-NE 67 2 min 0 W/m 5,4 C 15,2 C 8,6 km/h (2 Bft)
05/04/2012 19:20 14,9 C 53 % 1008,0 hPa 0,0 mm 7,6 km/h (2 Bft) NE 45 2 min 0 W/m 5,4 C 14,9 C 12,2 km/h (2 Bft)
05/04/2012 19:30 14,8 C 54 % 1008,1 hPa 0,0 mm 9,4 km/h (2 Bft) N-NE 22 2 min 0 W/m 5,6 C 14,8 C 13,0 km/h (3 Bft)
05/04/2012 19:40 14,6 C 53 % 1008,1 hPa 0,0 mm 7,9 km/h (2 Bft) N-NO 337 2 min 0 W/m 5,1 C 14,6 C 13,7 km/h (3 Bft)
05/04/2012 19:50 14,3 C 53 % 1008,1 hPa 0,0 mm 6,5 km/h (2 Bft) N-NE 22 2 min 0 W/m 4,9 C 14,3 C 9,7 km/h (2 Bft)
05/04/2012 20:00 14,0 C 54 % 1008,1 hPa 0,0 mm 5,0 km/h (1 Bft) N-NE 22 2 min 0 W/m 4,8 C 14,0 C 6,1 km/h (2 Bft)
05/04/2012 20:10 13,6 C 55 % 1008,1 hPa 0,0 mm 4,3 km/h (1 Bft) N-NE 22 2 min 0 W/m 4,7 C 13,6 C 6,5 km/h (2 Bft)
05/04/2012 20:20 13,4 C 55 % 1008,2 hPa 0,0 mm 4,7 km/h (1 Bft) N-NE 22 2 min 0 W/m 4,5 C 13,4 C 4,7 km/h (1 Bft)
05/04/2012 20:30 13,1 C 56 % 1008,2 hPa 0,0 mm 6,1 km/h (2 Bft) N-NE 22 0 min 0 W/m 4,5 C 13,1 C 7,9 km/h (2 Bft)
05/04/2012 20:40 12,8 C 56 % 1008,4 hPa 0,0 mm 5,0 km/h (1 Bft) N-NE 22 0 min 0 W/m 4,2 C 12,8 C 5,0 km/h (1 Bft)
05/04/2012 20:50 12,6 C 57 % 1008,5 hPa 0,0 mm 3,2 km/h (1 Bft) N-NE 22 0 min 0 W/m 4,3 C 12,6 C 4,3 km/h (1 Bft)
05/04/2012 21:00 12,3 C 57 % 1008,7 hPa 0,0 mm 6,1 km/h (2 Bft) N-NE 22 0 min 0 W/m 4,0 C 12,3 C 7,6 km/h (2 Bft)
05/04/2012 21:10 12,2 C 58 % 1008,7 hPa 0,0 mm 5,8 km/h (2 Bft) N-NE 22 0 min 0 W/m 4,2 C 12,2 C 10,4 km/h (2 Bft)
05/04/2012 21:20 12,0 C 58 % 1008,9 hPa 0,0 mm 3,6 km/h (1 Bft) NE 45 0 min 0 W/m 4,0 C 12,0 C 6,5 km/h (2 Bft)
05/04/2012 21:30 11,8 C 58 % 1008,9 hPa 0,0 mm 3,6 km/h (1 Bft) E-NE 67 0 min 0 W/m 3,8 C 11,8 C 6,8 km/h (2 Bft)
05/04/2012 21:40 11,7 C 59 % 1009,0 hPa 0,0 mm 6,5 km/h (2 Bft) N-NE 22 0 min 0 W/m 4,0 C 11,7 C 12,6 km/h (3 Bft)
05/04/2012 21:50 11,6 C 59 % 1009,0 hPa 0,0 mm 6,8 km/h (2 Bft) N-NE 22 0 min 0 W/m 3,9 C 11,6 C 10,1 km/h (2 Bft)
05/04/2012 22:00 11,6 C 60 % 1009,1 hPa 0,0 mm 4,3 km/h (1 Bft) N-NE 22 0 min 0 W/m 4,1 C 11,6 C 6,8 km/h (2 Bft)
05/04/2012 22:10 11,4 C 60 % 1009,0 hPa 0,0 mm 6,8 km/h (2 Bft) NE 45 0 min 0 W/m 3,9 C 11,4 C 7,6 km/h (2 Bft)
05/04/2012 22:20 11,3 C 60 % 1009,1 hPa 0,0 mm 3,6 km/h (1 Bft) N-NE 22 0 min 0 W/m 3,8 C 11,3 C 6,5 km/h (2 Bft)
05/04/2012 22:30 11,0 C 60 % 1009,2 hPa 0,0 mm 5,0 km/h (1 Bft) NE 45 0 min 0 W/m 3,5 C 11,0 C 7,9 km/h (2 Bft)
05/04/2012 22:40 10,8 C 62 % 1009,4 hPa 0,0 mm 6,8 km/h (2 Bft) N-NE 22 0 min 0 W/m 3,8 C 10,8 C 9,7 km/h (2 Bft)
05/04/2012 22:50 10,5 C 63 % 1009,4 hPa 0,0 mm 6,8 km/h (2 Bft) E-NE 67 0 min 0 W/m 3,8 C 10,5 C 7,2 km/h (2 Bft)
05/04/2012 23:00 10,4 C 64 % 1009,3 hPa 0,0 mm 10,1 km/h (2 Bft) N-NE 22 0 min 0 W/m 3,9 C 10,4 C 14,4 km/h (3 Bft)
05/04/2012 23:10 10,3 C 66 % 1009,4 hPa 0,0 mm 7,2 km/h (2 Bft) NE 45 0 min 0 W/m 4,2 C 10,3 C 10,1 km/h (2 Bft)
_ Min-Heure 08:10 15:40 18:50 - 11:10 - - - - 08:10 08:10 11:10
Minimum _ 2,4 C 46 % 1007,9 hPa - 0,0 km/h (0 Bft) - - - - 0,6 C 2,4 C 0,0 km/h (0 Bft)
_ Max-Heure 16:30 09:10 11:30 23:10 14:20 - - 20:20 23:10 11:40 16:30 15:40
Maximum _ 17,6 C 88 % 1010,5 hPa 0,0 mm 14,0 km/h
N (3 Bft)
- - 2 min 0 W/m 8,1 C 17,6 C 21,2 km/h
N (4 Bft)
Moyenne _ 10,3 C 68 % 1009,2 hPa #0,0 mm 3,6 km/h (1 Bft) NE - #2:34 h 0 W/m 4,2 C 10,3 C 5,6 km/h (2 Bft)
Saint Bonnet de Bellac- Haute Vienne - France